TimeEST,TemperatureF,Dew PointF,Humidity,Sea Level PressureIn,VisibilityMPH,Wind Direction,Wind SpeedMPH,Gust SpeedMPH,PrecipitationIn,Events,Conditions,WindDirDegrees,DateUTC
12:54 AM,44.1,39.9,85,30.15,10.0,SSW,8.1,-,N/A,,Partly Cloudy,210,2013-01-29 05:54:00
1:54 AM,44.1,41.0,89,30.14,8.0,South,8.1,-,N/A,,Clear,190,2013-01-29 06:54:00
2:54 AM,45.0,41.0,86,30.14,7.0,SSW,3.5,-,N/A,,Partly Cloudy,200,2013-01-29 07:54:00
3:54 AM,46.9,44.1,90,30.14,7.0,SW,4.6,-,N/A,,Mostly Cloudy,220,2013-01-29 08:54:00
4:54 AM,46.0,43.0,89,30.14,7.0,SSW,6.9,-,N/A,,Mostly Cloudy,200,2013-01-29 09:54:00
5:54 AM,45.0,42.1,90,30.14,7.0,SSW,6.9,-,N/A,,Mostly Cloudy,200,2013-01-29 10:54:00
6:54 AM,44.1,42.1,93,30.15,7.0,SSW,4.6,-,N/A,,Scattered Clouds,200,2013-01-29 11:54:00
7:54 AM,45.0,43.0,93,30.16,6.0,South,5.8,-,N/A,,Mostly Cloudy,190,2013-01-29 12:54:00
8:54 AM,50.0,45.0,83,30.17,7.0,SW,5.8,-,N/A,,Scattered Clouds,220,2013-01-29 13:54:00
9:54 AM,55.9,46.0,69,30.17,8.0,WSW,6.9,-,N/A,,Scattered Clouds,240,2013-01-29 14:54:00
10:54 AM,61.0,48.0,62,30.16,10.0,WSW,4.6,-,N/A,,Partly Cloudy,240,2013-01-29 15:54:00
11:54 AM,66.9,50.0,54,30.14,10.0,West,6.9,-,N/A,,Scattered Clouds,260,2013-01-29 16:54:00
12:54 PM,69.1,51.1,53,30.11,10.0,SSW,5.8,-,N/A,,Scattered Clouds,210,2013-01-29 17:54:00
1:54 PM,72.0,52.0,49,30.08,10.0,South,9.2,-,N/A,,Scattered Clouds,190,2013-01-29 18:54:00
2:54 PM,73.9,53.1,48,30.07,10.0,SSW,8.1,-,N/A,,Scattered Clouds,200,2013-01-29 19:54:00
3:54 PM,73.9,53.1,48,30.07,10.0,SSE,5.8,-,N/A,,Scattered Clouds,160,2013-01-29 20:54:00
4:54 PM,71.1,53.1,53,30.06,10.0,SSE,8.1,-,N/A,,Mostly Cloudy,160,2013-01-29 21:54:00
5:54 PM,68.0,53.1,59,30.06,10.0,SE,6.9,-,N/A,,Mostly Cloudy,140,2013-01-29 22:54:00
6:54 PM,64.9,52.0,63,30.07,10.0,SSE,8.1,-,N/A,,Overcast,160,2013-01-29 23:54:00
7:54 PM,63.0,51.1,65,30.06,10.0,SSE,8.1,-,N/A,,Mostly Cloudy,160,2013-01-30 00:54:00
8:54 PM,63.0,51.1,65,30.06,10.0,SSE,6.9,-,N/A,,Mostly Cloudy,160,2013-01-30 01:54:00
9:54 PM,57.9,51.1,78,30.07,10.0,South,8.1,-,N/A,,Mostly Cloudy,170,2013-01-30 02:54:00
10:54 PM,57.0,51.1,81,30.08,10.0,South,5.8,-,N/A,,Mostly Cloudy,190,2013-01-30 03:54:00
11:54 PM,59.0,53.1,81,30.05,10.0,South,8.1,-,N/A,,Mostly Cloudy,190,2013-01-30 04:54:00